Location: Bosmont
(49.7318°N, 3.8587°E)
Time: 09:42:29
(UTC+00:00)

FO-29 - Pass Details

Date: 30 November 2023
Orbit: 799 x 1322 km, 98.6° (Epoch: 29 February)

Event Time Altitude Azimuth Distance (km) Brightness Sun altitude
Rises 04:55:59 0° 8° (N) 3,995 12.7 -22.2°
Reaches altitude 10° 04:59:03 10° 355° (N) 3,109 12.0 -21.7°
Enters shadow 05:03:04 22° 322° (NW) 2,407 11.1 -21.1°
